User: anonymous   Login
Location: Unspecified
(0.0000°N, 0.0000°E)
Time: 10:48:27
(UTC+00:00)
Language:

COSMOS 2452 - Orbit

View from above orbital plane
View from above orbital plane
View from above satellite
View from above satellite

Ground track
Ground track

The orbit data is extracted from the following two-line orbital elements,

1 35499U 09036B   17202.77341981 +.00000010 +00000-0 +00000-0 0  9991
2 35499 082.4926 305.0140 0016102 037.9393 322.2825 12.42904489364842
Epoch (UTC): 21 July 2017 18:33:43
Eccentricity: 0.0016102
inclination: 82.4926°
perigee height: 1481 km
apogee height: 1507 km
right ascension of ascending node: 305.0140°
argument of perigee: 37.9393°
revolutions per day: 12.42904489
mean anomaly at epoch: 322.2825°
orbit number at epoch: 36484

The dashed part of the orbit path shows where the satellite is in the earth's shadow,  

DLR